| time (UTC) | temp F | wind direction | speed knots | gust knots | rain 1hr in | rain 24hr in | rain mn in | humidity % | barometer mb |
| 20260502231904 | 53 | 206 | 1.7 | 2.6 | 0.00 | 0.00 | 0.00 | 75 | 1010.0 |
| 20260502231404 | 53 | 206 | 1.7 | 2.6 | 0.00 | 0.00 | 0.00 | 75 | 1010.1 |
| 20260502230904 | 54 | 227 | 0.9 | 1.7 | 0.00 | 0.00 | 0.00 | 75 | 1010.1 |
| 20260502230404 | 54 | 227 | 1.7 | 2.6 | 0.00 | 0.00 | 0.00 | 74 | 1010.2 |
| 20260502225903 | 54 | 227 | 1.7 | 2.6 | 0.00 | 0.00 | 0.00 | 74 | 1010.3 |
| 20260502225403 | 54 | 227 | 1.7 | 2.6 | 0.00 | 0.00 | 0.00 | 73 | 1010.2 |
| 20260502224905 | 54 | 224 | 2.6 | 2.6 | 0.00 | 0.00 | 0.00 | 73 | 1010.3 |
| 20260502224403 | 54 | 236 | 1.7 | 2.6 | 0.00 | 0.00 | 0.00 | 73 | 1010.2 |
| 20260502223905 | 55 | 232 | 2.6 | 2.6 | 0.00 | 0.00 | 0.00 | 73 | 1010.3 |
| 20260502223404 | 55 | 225 | 2.6 | 4.3 | 0.00 | 0.00 | 0.00 | 74 | 1010.3 |
| 20260502222904 | 55 | 216 | 3.5 | 5.2 | 0.00 | 0.00 | 0.00 | 74 | 1010.3 |
| 20260502221404 | 54 | 214 | 2.6 | 4.3 | 0.00 | 0.00 | 0.00 | 77 | 1010.4 |
| 20260502220904 | 54 | 213 | 2.6 | 4.3 | 0.00 | 0.00 | 0.00 | 78 | 1010.4 |
| 20260502215404 | 55 | 259 | 1.7 | 2.6 | 0.00 | 0.00 | 0.00 | 77 | 1010.3 |
| 20260502214903 | 55 | 253 | 1.7 | 2.6 | 0.00 | 0.00 | 0.00 | 77 | 1010.5 |
| 20260502214403 | 55 | 233 | 2.6 | 4.3 | 0.00 | 0.00 | 0.00 | 77 | 1010.5 |
| 20260502213904 | 55 | 225 | 2.6 | 4.3 | 0.00 | 0.00 | 0.00 | 77 | 1010.6 |
| 20260502212904 | 55 | 202 | 1.7 | 2.6 | 0.00 | 0.00 | 0.00 | 76 | 1010.5 |
| 20260502211403 | 56 | 239 | 2.6 | 7.0 | 0.00 | 0.00 | 0.00 | 74 | 1010.8 |
| 20260502210904 | 56 | 243 | 6.1 | 8.7 | 0.00 | 0.00 | 0.00 | 74 | 1011.0 |
| 20260502210404 | 57 | 247 | 6.1 | 12.2 | 0.00 | 0.00 | 0.00 | 73 | 1011.0 |
| 20260502205903 | 58 | 257 | 7.8 | 10.4 | 0.00 | 0.00 | 0.00 | 74 | 1011.3 |
| 20260502205404 | 59 | 255 | 6.1 | 10.4 | 0.00 | 0.00 | 0.00 | 72 | 1010.9 |
| 20260502204904 | 60 | 264 | 7.8 | 14.8 | 0.00 | 0.00 | 0.00 | 70 | 1011.0 |
| 20260502204404 | 60 | 257 | 8.7 | 14.8 | 0.00 | 0.00 | 0.00 | 71 | 1011.0 |
| 20260502203904 | 60 | 248 | 12.2 | 15.6 | 0.00 | 0.00 | 0.00 | 71 | 1010.9 |
| 20260502203404 | 60 | 248 | 12.2 | 17.4 | 0.00 | 0.00 | 0.00 | 72 | 1010.9 |
| 20260502202904 | 60 | 245 | 10.4 | 13.0 | 0.00 | 0.00 | 0.00 | 72 | 1010.8 |
| 20260502202403 | 61 | 242 | 11.3 | 14.8 | 0.00 | 0.00 | 0.00 | 71 | 1010.7 |
| 20260502201902 | 60 | 240 | 9.6 | 12.2 | 0.00 | 0.00 | 0.00 | 70 | 1010.8 |
| 20260502201402 | 61 | 250 | 8.7 | 11.3 | 0.00 | 0.00 | 0.00 | 67 | 1010.8 |
| 20260502200903 | 60 | 255 | 7.0 | 10.4 | 0.00 | 0.00 | 0.00 | 66 | 1010.8 |
| 20260502200402 | 60 | 251 | 6.1 | 8.7 | 0.00 | 0.00 | 0.00 | 64 | 1010.8 |
| 20260502195903 | 61 | 243 | 7.0 | 8.7 | 0.00 | 0.00 | 0.00 | 63 | 1010.6 |
| 20260502195402 | 61 | 241 | 7.8 | 10.4 | 0.00 | 0.00 | 0.00 | 63 | 1010.6 |
| 20260502194403 | 61 | 237 | 7.0 | 10.4 | 0.00 | 0.00 | 0.00 | 62 | 1010.6 |
| 20260502193902 | 60 | 237 | 7.0 | 10.4 | 0.00 | 0.00 | 0.00 | 62 | 1010.6 |
| 20260502193402 | 60 | 247 | 6.1 | 8.7 | 0.00 | 0.00 | 0.00 | 62 | 1010.7 |
| 20260502192903 | 61 | 246 | 7.0 | 10.4 | 0.00 | 0.00 | 0.00 | 61 | 1010.7 |
| 20260502192402 | 61 | 251 | 6.1 | 8.7 | 0.00 | 0.00 | 0.00 | 61 | 1010.7 |
| 20260502191902 | 61 | 248 | 7.0 | 8.7 | 0.00 | 0.00 | 0.00 | 61 | 1010.7 |
| 20260502190902 | 61 | 259 | 4.3 | 7.0 | 0.00 | 0.00 | 0.00 | 60 | 1010.6 |
| 20260502185903 | 62 | 249 | 6.1 | 10.4 | 0.00 | 0.00 | 0.00 | 58 | 1010.5 |
| 20260502185401 | 63 | 256 | 6.1 | 10.4 | 0.00 | 0.00 | 0.00 | 58 | 1010.5 |
| 20260502184902 | 63 | 249 | 7.8 | 10.4 | 0.00 | 0.00 | 0.00 | 57 | 1010.6 |
| 20260502184402 | 63 | 248 | 8.7 | 10.4 | 0.00 | 0.00 | 0.00 | 56 | 1010.5 |
| 20260502183902 | 64 | 253 | 8.7 | 12.2 | 0.00 | 0.00 | 0.00 | 56 | 1010.5 |
| 20260502183402 | 64 | 249 | 8.7 | 11.3 | 0.00 | 0.00 | 0.00 | 55 | 1010.5 |
| 20260502182903 | 64 | 250 | 7.8 | 11.3 | 0.00 | 0.00 | 0.00 | 55 | 1010.5 |
| 20260502181902 | 64 | 256 | 6.1 | 10.4 | 0.00 | 0.00 | 0.00 | 54 | 1010.6 |
| 20260502181402 | 65 | 255 | 4.3 | 11.3 | 0.00 | 0.00 | 0.00 | 53 | 1010.5 |
| 20260502180902 | 65 | 257 | 7.8 | 10.4 | 0.00 | 0.00 | 0.00 | 52 | 1010.5 |
| 20260502180402 | 66 | 246 | 8.7 | 13.9 | 0.00 | 0.00 | 0.00 | 50 | 1010.5 |
| 20260502170402 | 69 | 243 | 11.3 | 14.8 | 0.00 | 0.00 | 0.00 | 45 | 1010.6 |
| 20260502163402 | 70 | 249 | 14.8 | 17.4 | 0.00 | 0.00 | 0.00 | 43 | 1010.8 |
| 20260502162902 | 70 | 252 | 15.6 | 20.0 | 0.00 | 0.00 | 0.00 | 43 | 1010.9 |
| 20260502161902 | 70 | 239 | 13.0 | 20.0 | 0.00 | 0.00 | 0.00 | 42 | 1010.9 |
| 20260502161402 | 71 | 248 | 12.2 | 18.2 | 0.00 | 0.00 | 0.00 | 42 | 1011.0 |
| 20260502160902 | 71 | 241 | 15.6 | 20.0 | 0.00 | 0.00 | 0.00 | 41 | 1011.0 |
| 20260502160402 | 71 | 233 | 14.8 | 19.1 | 0.00 | 0.00 | 0.00 | 41 | 1011.1 |
| 20260502151902 | 71 | 244 | 13.9 | 20.0 | 0.00 | 0.00 | 0.00 | 38 | 1011.4 |
| 20260502150903 | 71 | 244 | 13.9 | 20.9 | 0.00 | 0.00 | 0.00 | 38 | 1011.5 |
| 20260502150402 | 72 | 237 | 14.8 | 20.9 | 0.00 | 0.00 | 0.00 | 37 | 1011.5 |
| 20260502130403 | 73 | 234 | 17.4 | 26.1 | 0.00 | 0.00 | 0.00 | 33 | 1013.0 |
| 20260502123402 | 74 | 237 | 19.1 | 24.3 | 0.00 | 0.00 | 0.00 | 34 | 1013.4 |
| 20260502122903 | 74 | 238 | 19.1 | 24.3 | 0.00 | 0.00 | 0.00 | 34 | 1013.4 |
| 20260502122403 | 74 | 234 | 19.1 | 25.2 | 0.00 | 0.00 | 0.00 | 36 | 1013.5 |
| 20260502121903 | 74 | 237 | 19.1 | 26.1 | 0.00 | 0.00 | 0.00 | 35 | 1013.6 |
| 20260502121402 | 74 | 225 | 19.1 | 24.3 | 0.00 | 0.00 | 0.00 | 35 | 1013.6 |
| 20260502120902 | 74 | 239 | 18.2 | 25.2 | 0.00 | 0.00 | 0.00 | 36 | 1013.7 |
| 20260502120403 | 74 | 226 | 20.0 | 26.9 | 0.00 | 0.00 | 0.00 | 35 | 1013.7 |
| 20260502115903 | 74 | 223 | 18.2 | 22.6 | 0.00 | 0.00 | 0.00 | 36 | 1013.8 |
| 20260502115402 | 73 | 227 | 17.4 | 22.6 | 0.00 | 0.00 | 0.00 | 36 | 1013.8 |
| 20260502114902 | 73 | 217 | 21.7 | 27.8 | 0.00 | 0.00 | 0.00 | 35 | 1013.9 |
| 20260502114402 | 73 | 225 | 20.0 | 26.9 | 0.00 | 0.00 | 0.00 | 36 | 1013.9 |
| 20260502113903 | 73 | 244 | 18.2 | 22.6 | 0.00 | 0.00 | 0.00 | 36 | 1014.0 |
| 20260502113402 | 73 | 242 | 18.2 | 26.1 | 0.00 | 0.00 | 0.00 | 38 | 1014.0 |
| 20260502112403 | 73 | 237 | 18.2 | 22.6 | 0.00 | 0.00 | 0.00 | 38 | 1014.1 |
| 20260502111903 | 73 | 239 | 19.1 | 25.2 | 0.00 | 0.00 | 0.00 | 37 | 1014.1 |
| 20260502111404 | 72 | 235 | 18.2 | 28.7 | 0.00 | 0.00 | 0.00 | 38 | 1014.1 |
| 20260502110403 | 72 | 241 | 22.6 | 26.9 | 0.00 | 0.00 | 0.00 | 38 | 1014.2 |
| 20260502105903 | 72 | 233 | 20.9 | 26.1 | 0.00 | 0.00 | 0.00 | 37 | 1014.3 |
| 20260502105402 | 72 | 234 | 20.9 | 25.2 | 0.00 | 0.00 | 0.00 | 38 | 1014.2 |
| 20260502104903 | 72 | 238 | 21.7 | 27.8 | 0.00 | 0.00 | 0.00 | 38 | 1014.4 |
| 20260502104402 | 72 | 227 | 18.2 | 22.6 | 0.00 | 0.00 | 0.00 | 40 | 1014.5 |
| 20260502103902 | 72 | 229 | 18.2 | 22.6 | 0.00 | 0.00 | 0.00 | 40 | 1014.5 |
| 20260502103403 | 72 | 212 | 15.6 | 21.7 | 0.00 | 0.00 | 0.00 | 41 | 1014.5 |
| 20260502102902 | 71 | 230 | 17.4 | 22.6 | 0.00 | 0.00 | 0.00 | 42 | 1014.7 |
| 20260502101903 | 71 | 243 | 19.1 | 24.3 | 0.00 | 0.00 | 0.00 | 43 | 1014.7 |
| 20260502100902 | 70 | 219 | 20.0 | 24.3 | 0.00 | 0.00 | 0.00 | 42 | 1014.9 |
| 20260502100402 | 71 | 226 | 15.6 | 22.6 | 0.00 | 0.00 | 0.00 | 43 | 1015.0 |
| 20260502091402 | 68 | 218 | 12.2 | 18.2 | 0.00 | 0.00 | 0.00 | 47 | 1015.2 |
| 20260502090902 | 68 | 214 | 13.9 | 17.4 | 0.00 | 0.00 | 0.00 | 46 | 1015.2 |
| 20260502071402 | 61 | 211 | 8.7 | 13.0 | 0.00 | 0.00 | 0.00 | 59 | 1016.3 |
| 20260502070902 | 61 | 203 | 10.4 | 14.8 | 0.00 | 0.00 | 0.00 | 59 | 1016.3 |
| 20260502070402 | 60 | 214 | 10.4 | 14.8 | 0.00 | 0.00 | 0.00 | 59 | 1016.3 |
| 20260502065902 | 60 | 207 | 9.6 | 13.0 | 0.00 | 0.00 | 0.00 | 60 | 1016.4 |
| 20260502065403 | 60 | 213 | 11.3 | 13.0 | 0.00 | 0.00 | 0.00 | 60 | 1016.5 |
| 20260502064902 | 60 | 201 | 8.7 | 13.9 | 0.00 | 0.00 | 0.00 | 61 | 1016.6 |
| 20260502064403 | 59 | 215 | 8.7 | 13.9 | 0.00 | 0.00 | 0.00 | 62 | 1016.6 |
| 20260502063902 | 59 | 202 | 9.6 | 12.2 | 0.00 | 0.00 | 0.00 | 62 | 1016.6 |
| 20260502063403 | 58 | 207 | 8.7 | 12.2 | 0.00 | 0.00 | 0.00 | 64 | 1016.7 |
| 20260502062903 | 57 | 198 | 7.0 | 11.3 | 0.00 | 0.00 | 0.00 | 65 | 1016.7 |
| 20260502062402 | 57 | 192 | 9.6 | 12.2 | 0.00 | 0.00 | 0.00 | 65 | 1016.7 |
| 20260502061403 | 56 | 183 | 7.8 | 10.4 | 0.00 | 0.00 | 0.00 | 68 | 1016.8 |
| 20260502060902 | 55 | 181 | 7.8 | 11.3 | 0.00 | 0.00 | 0.00 | 69 | 1016.8 |
| 20260502060402 | 55 | 186 | 7.0 | 10.4 | 0.00 | 0.00 | 0.00 | 70 | 1016.9 |
| 20260502055902 | 54 | 179 | 7.0 | 8.7 | 0.00 | 0.00 | 0.00 | 71 | 1016.9 |
| 20260502055403 | 54 | 167 | 7.0 | 10.4 | 0.00 | 0.00 | 0.00 | 71 | 1017.0 |
| 20260502054903 | 53 | 182 | 7.8 | 12.2 | 0.00 | 0.00 | 0.00 | 71 | 1017.1 |
| 20260502054402 | 53 | 174 | 7.8 | 12.2 | 0.00 | 0.00 | 0.00 | 72 | 1017.2 |
| 20260502053902 | 52 | 178 | 7.8 | 12.2 | 0.00 | 0.00 | 0.00 | 72 | 1017.2 |
| 20260502053405 | 52 | 176 | 7.8 | 13.0 | 0.00 | 0.00 | 0.00 | 74 | 1017.3 |
| 20260502052903 | 52 | 168 | 7.0 | 10.4 | 0.00 | 0.00 | 0.00 | 74 | 1017.2 |
| 20260502052403 | 51 | 165 | 7.0 | 10.4 | 0.00 | 0.00 | 0.00 | 75 | 1017.3 |
| 20260502051902 | 51 | 167 | 7.8 | 11.3 | 0.00 | 0.00 | 0.00 | 75 | 1017.3 |
| 20260502051403 | 50 | 172 | 8.7 | 12.2 | 0.00 | 0.00 | 0.00 | 75 | 1017.4 |
| 20260502050903 | 50 | 171 | 7.8 | 12.2 | 0.00 | 0.00 | 0.00 | 76 | 1017.5 |
| 20260502050403 | 50 | 176 | 8.7 | 12.2 | 0.00 | 0.00 | 0.00 | 76 | 1017.6 |
| 20260502045903 | 49 | 171 | 7.8 | 10.4 | 0.00 | 0.00 | 0.00 | 76 | 1017.6 |
| 20260502045402 | 49 | 179 | 7.0 | 10.4 | 0.00 | 0.00 | 0.00 | 77 | 1017.7 |
| 20260502044402 | 49 | 180 | 5.2 | 7.0 | 0.00 | 0.00 | 0.00 | 78 | 1017.9 |
| 20260502043903 | 48 | 178 | 5.2 | 8.7 | 0.00 | 0.00 | 0.00 | 78 | 1017.9 |
| 20260502043402 | 48 | 182 | 5.2 | 7.0 | 0.00 | 0.00 | 0.00 | 78 | 1018.0 |
| 20260502042404 | 48 | 178 | 5.2 | 7.8 | 0.00 | 0.00 | 0.00 | 79 | 1018.0 |
| 20260502041903 | 47 | 183 | 5.2 | 7.0 | 0.00 | 0.00 | 0.00 | 79 | 1018.1 |
| 20260502041403 | 47 | 177 | 4.3 | 7.0 | 0.00 | 0.00 | 0.00 | 80 | 1018.2 |
| 20260502040903 | 47 | 181 | 3.5 | 5.2 | 0.00 | 0.00 | 0.00 | 80 | 1018.2 |
| 20260502040403 | 47 | 182 | 4.3 | 7.0 | 0.00 | 0.00 | 0.00 | 80 | 1018.2 |
| 20260502035902 | 46 | 179 | 3.5 | 6.1 | 0.00 | 0.00 | 0.00 | 80 | 1018.3 |
| 20260502035402 | 46 | 177 | 4.3 | 6.1 | 0.00 | 0.00 | 0.00 | 80 | 1018.4 |
| 20260502034402 | 45 | 192 | 4.3 | 5.2 | 0.00 | 0.00 | 0.00 | 82 | 1018.5 |
| 20260502033903 | 45 | 196 | 4.3 | 5.2 | 0.00 | 0.00 | 0.00 | 82 | 1018.6 |
| 20260502033403 | 45 | 195 | 2.6 | 5.2 | 0.00 | 0.00 | 0.00 | 82 | 1018.7 |
| 20260502032903 | 45 | 198 | 4.3 | 5.2 | 0.00 | 0.00 | 0.00 | 83 | 1018.7 |
| 20260502032403 | 44 | 197 | 3.5 | 5.2 | 0.00 | 0.00 | 0.00 | 84 | 1018.8 |
| 20260502031903 | 44 | 191 | 4.3 | 6.1 | 0.00 | 0.00 | 0.00 | 84 | 1018.8 |
| 20260502031402 | 43 | 191 | 3.5 | 5.2 | 0.00 | 0.00 | 0.00 | 82 | 1018.9 |
| 20260502030903 | 43 | 205 | 2.6 | 2.6 | 0.00 | 0.00 | 0.00 | 82 | 1019.0 |
| 20260502030403 | 44 | 232 | 1.7 | 2.6 | 0.00 | 0.00 | 0.00 | 81 | 1019.0 |
| 20260502025903 | 44 | 235 | 1.7 | 2.6 | 0.00 | 0.00 | 0.00 | 81 | 1019.1 |
| 20260502025402 | 45 | 222 | 2.6 | 5.2 | 0.00 | 0.00 | 0.00 | 81 | 1019.0 |
| 20260502024903 | 45 | 212 | 2.6 | 5.2 | 0.00 | 0.00 | 0.00 | 82 | 1019.0 |
| 20260502024402 | 44 | 201 | 2.6 | 4.3 | 0.00 | 0.00 | 0.00 | 82 | 1019.1 |
| 20260502023902 | 44 | 231 | 2.6 | 2.6 | 0.00 | 0.00 | 0.00 | 81 | 1019.2 |
| 20260502022903 | 44 | 221 | 0.9 | 2.6 | 0.00 | 0.00 | 0.00 | 80 | 1019.3 |
| 20260502022403 | 44 | 218 | 0.9 | 1.7 | 0.00 | 0.00 | 0.00 | 80 | 1019.3 |
| 20260502021903 | 44 | 221 | 0.9 | 4.3 | 0.00 | 0.00 | 0.00 | 80 | 1019.4 |
| 20260502021402 | 44 | 208 | 1.7 | 2.6 | 0.00 | 0.00 | 0.00 | 80 | 1019.4 |
| 20260502020902 | 44 | 214 | 1.7 | 2.6 | 0.00 | 0.00 | 0.00 | 80 | 1019.5 |
| 20260502020403 | 44 | 201 | 1.7 | 2.6 | 0.00 | 0.00 | 0.00 | 80 | 1019.5 |
| 20260502015902 | 44 | 202 | 1.7 | 2.6 | 0.00 | 0.00 | 0.00 | 79 | 1019.6 |
| 20260502015403 | 44 | 225 | 1.7 | 2.6 | 0.00 | 0.00 | 0.00 | 79 | 1019.6 |
| 20260502014903 | 44 | 234 | 0.9 | 2.6 | 0.00 | 0.00 | 0.00 | 79 | 1019.8 |
| 20260502013903 | 45 | 214 | 2.6 | 5.2 | 0.00 | 0.00 | 0.00 | 79 | 1019.7 |
| 20260502012903 | 45 | 206 | 4.3 | 5.2 | 0.00 | 0.00 | 0.00 | 78 | 1019.8 |
| 20260502012403 | 45 | 210 | 4.3 | 5.2 | 0.00 | 0.00 | 0.00 | 77 | 1019.8 |
| 20260502011903 | 45 | 213 | 4.3 | 4.3 | 0.00 | 0.00 | 0.00 | 76 | 1019.9 |
| 20260502010903 | 46 | 242 | 3.5 | 4.3 | 0.00 | 0.00 | 0.00 | 76 | 1020.0 |
| 20260502010403 | 46 | 233 | 3.5 | 6.1 | 0.00 | 0.00 | 0.00 | 75 | 1020.0 |
| 20260502005903 | 46 | 224 | 4.3 | 7.0 | 0.00 | 0.00 | 0.00 | 75 | 1020.1 |
| 20260502005402 | 47 | 220 | 5.2 | 7.0 | 0.00 | 0.00 | 0.00 | 74 | 1020.1 |
| 20260502004903 | 47 | 218 | 6.1 | 8.7 | 0.00 | 0.00 | 0.00 | 74 | 1020.2 |
| 20260502003903 | 46 | 217 | 6.1 | 7.0 | 0.00 | 0.00 | 0.00 | 74 | 1020.3 |
| 20260502003404 | 46 | 214 | 6.1 | 7.8 | 0.00 | 0.00 | 0.00 | 74 | 1020.3 |
| 20260502002902 | 46 | 211 | 5.2 | 7.8 | 0.00 | 0.00 | 0.00 | 74 | 1020.4 |
| 20260502002403 | 46 | 215 | 5.2 | 7.0 | 0.00 | 0.00 | 0.00 | 73 | 1020.4 |
| 20260502001904 | 46 | 212 | 5.2 | 7.0 | 0.00 | 0.00 | 0.00 | 73 | 1020.4 |
| 20260502000903 | 47 | 206 | 4.3 | 6.1 | 0.00 | 0.00 | 0.00 | 72 | 1020.4 |
| 20260502000403 | 47 | 208 | 4.3 | 6.1 | 0.00 | 0.00 | 0.00 | 72 | 1020.5 |
| 20260501235403 | 47 | 206 | 3.5 | 4.3 | 0.00 | 0.00 | 0.00 | 72 | 1020.6 |
| 20260501234903 | 47 | 207 | 3.5 | 5.2 | 0.00 | 0.00 | 0.00 | 72 | 1020.7 |
| 20260501233403 | 47 | 197 | 2.6 | 4.3 | 0.00 | 0.00 | 0.00 | 72 | 1020.9 |
| 20260501232902 | 47 | 198 | 3.5 | 5.2 | 0.00 | 0.00 | 0.00 | 73 | 1020.9 |
| 20260501232403 | 46 | 207 | 4.3 | 4.3 | 0.00 | 0.00 | 0.00 | 73 | 1020.9 |